Regional Weather Roundup
Issued by NWS Sterling, VA

Home | Current Version | Previous Version | Text Only | Print | Product List | Glossary Off
Versions: 1 2 3 4 5 6 7 8 9 10 11 12 13 14 15 16 17 18 19 20 21 22 23 24 25 26 27 28 29 30 31 32 33 34 35 36 37 38 39 40 41 42 43 44 45 46 47 48 49 50

000
ASUS41 KLWX 260910
RWRLWX

REGIONAL WEATHER ROUNDUP
NATIONAL WEATHER SERVICE BALTIMORE MD/WASHINGTON DC
400 AM EST WED NOV 26 2014

Note: "FAIR" indicates few or no clouds below 12,000 feet
with no significant weather and/or obstructions to visibility.
 TC=TEMPERATURE CELSIUS

 * =Non NWS site. Station does not report precipitation (e.g. rain,
    snow, etc.), thunder, or fog.

DCZ001-MDZ009-015-VAZ040>042-051-053>054-261000-
WASHINGTON METRO

CITY           SKY/WX    TMP DP  RH WIND       PRES   REMARKS
WASHINGTON NAT LGT RAIN  50  37  61 NE3       30.07F
DULLES         LGT RAIN  45  39  79 N8        30.07F
ANDREWS AFB    LGT RAIN  44  40  86 N6        30.06F
FT BELVOIR     LGT RAIN  46  41  84 CALM      30.07F
QUANTICO       LGT RAIN  47  40  76 CALM      30.08F
COLLEGE PARK*  CLOUDY    46  36  66 CALM      30.07F
LEESBURG*      RAIN      43  37  81 N9G21     30.10F
MANASSAS*      CLOUDY    45  43  93 N7        30.06F
GAITHERSBURG*  CLOUDY    43  37  81 N5        30.12F

$$

MDZ006>007-011-014-261000-
BALTIMORE METRO

CITY           SKY/WX    TMP DP  RH WIND       PRES   REMARKS
BWI AIRPORT    LGT RAIN  48  34  58 N5        30.07F
MD SCIENCE CTR   N/A     50  34  54 MISG      30.09F
MARTIN STATE   DRIZZLE   46  37  71 NW5       30.10F
ANNAPOLIS      LGT RAIN  46  39  76 N8        30.06F
FORT MEADE*    CLOUDY    43  37  81 CALM      30.10F

$$

MDZ012-015-019>023-261000-
MARYLAND EASTERN SHORE

CITY           SKY/WX    TMP DP  RH WIND       PRES   REMARKS
OCEAN CITY     LGT RAIN  48  41  76 NE14      30.06F
SALISBURY      LGT RAIN  48  41  76 NE8       30.07F
BAY BRIDGE AP* LGT RAIN  46  37  71 NE6       30.07F
CAMBRIDGE*     CLOUDY    46  41  81 E5        30.05F
EASTON*        LGT RAIN  47  43  87 E5        30.10F

$$

MDZ017>025-261000-
SOUTHERN MARYLAND

CITY           SKY/WX    TMP DP  RH WIND       PRES   REMARKS
PATUXENT RIVER LGT RAIN  46  40  79 E10       30.06F
ST INIGOES     RAIN      46  40  79 NE9       30.05F
LEONARDTOWN*   CLOUDY    45  41  87 CALM      30.07S

$$

MDZ003>005-261000-
NORTH CENTRAL MARYLAND

CITY           SKY/WX    TMP DP  RH WIND       PRES   REMARKS
FREDERICK*     DRIZZLE   43  32  65 N9        30.15F
HAGERSTOWN APT CLOUDY    42  30  62 N10       30.12F
WESTMINSTER*   CLOUDY    43  30  61 NE10      30.12F

$$

MDZ501>502-261000-
WESTERN MARYLAND

CITY           SKY/WX    TMP DP  RH WIND       PRES   REMARKS
OAKLAND*       CLOUDY    30  30 100 E9        30.03F WCI  22
CUMBERLAND*    CLOUDY    39  28  65 N8        30.16F

$$

VAZ025>031-261000-
SHENANDOAH VALLEY

CITY           SKY/WX    TMP DP  RH WIND       PRES   REMARKS
WINCHESTER*    LGT RAIN  43  30  61 N3        30.10F
FRONT ROYAL*   CLOUDY    39  34  81 NE3       30.08F
LURAY*         LGT RAIN  43  36  75 N9G17     30.06F
NEW MARKET*    CLOUDY    42  33  71 N8        30.06F
STAUNTON*      LGT RAIN  40  35  80 N5        30.05F
WAYNESBORO*    CLOUDY    38  37  97 NW6       30.01F

$$

WVZ021-048>050-054>055-261000-
EASTERN WEST VIRGINIA PANHANDLE

CITY           SKY/WX    TMP DP  RH WIND       PRES   REMARKS
MARTINSBURG    LGT RAIN  42  29  59 N9        30.11F
PETERSBURG*    CLOUDY    38  28  64 N5        30.11F

$$

VAZ036>039-050-261000-
CENTRAL FOOTHILLS

CITY           SKY/WX    TMP DP  RH WIND       PRES   REMARKS
CHARLOTTESVILL LGT RAIN  44  41  89 N5        30.03F
CULPEPER*      RAIN      45  43  93 N3        30.05F
ORANGE*        RAIN      45  41  87 N3        30.06F
GORDONSVILLE*  CLOUDY    44  41  91 NE3       30.04F
WARRENTON*     LGT RAIN  46  45  96 N3        30.05F

$$

VAZ055>057-261000-
NORTH AND CENTRAL PIEDMONT

CITY           SKY/WX    TMP DP  RH WIND       PRES   REMARKS
FREDERICKSBRG* LGT RAIN  46  45  97 NW5       30.05F
STAFFORD*      RAIN      44  44 100 CALM      30.10F

$$

NCZ024-NYZ072-PAZ021-071-VAZ022-071-261000-
OTHER REGIONAL OBSERVATIONS

CITY           SKY/WX    TMP DP  RH WIND       PRES   REMARKS
NEW YORK CITY  CLOUDY    50  27  40 VRB5      30.19F
PHILADELPHIA   CLOUDY    50  31  48 N16       30.09F
PITTSBURGH     CLOUDY    31  25  78 N6        30.12F
ROANOKE        RAIN      42  39  89 W5        30.05R
RICHMOND       RAIN      46  43  87 NE9       30.04S FOG
RALEIGH        RAIN      50  47  89 NE9       29.91F VSB 1

$$

ANZ530>537-261000-
MARINE OBSERVATIONS

STATION/POSITION TIME  TEMP    WIND        PRES
                       AIR SEA DIR/SP/G
                 (UTC) (F)     (DEG/KT/KT) (MB)
THOMAS PT LIGHT  0900   47 48   10/ 13/ 15 1018.7F
BALT KEY BRIDGE  0900   48     350/  9/ 10 1018.6F
COVE POINT       0900   46      90/  8/ 12 1017.6R
LEWISETTA        0900   47 50   60/ 15/ 20 1017.5R
SOLOMONS ISLAND  0900      50                N/A
PINEY POINT      0900           90/  8/ 10   N/A

$$




USA.gov is the U.S. government's official web portal to all federal, state and local government web resources and services.